EWG61G EGNS-EGCC

Flight info

Callsign EWG61G
Flight time 0h 25m
Altitude 17000
Route TIMIS Q39 DANDI DCT PENIL
Aircraft A320/M-SDE3FGHIRWY/LB1

Departure

Time 2026-04-20 21:17
Airport Isle of Man Airport (EGNS)

Arrival

Time 2026-04-20 21:42
Airport Manchester Airport (EGCC)
Time Latitude Longitude Altitude Speed Heading
2026-04-20 20:57 54.08693 -4.63153 40 ft 0 kts 43°
2026-04-20 21:05 54.08686 -4.63164 41 ft 2 kts 43°
2026-04-20 21:05 54.08673 -4.63184 40 ft 2 kts 43°
2026-04-20 21:05 54.08660 -4.63204 38 ft 2 kts 43°
2026-04-20 21:05 54.08648 -4.63224 39 ft 2 kts 43°
2026-04-20 21:06 54.08635 -4.63244 38 ft 2 kts 43°
2026-04-20 21:06 54.08625 -4.63261 39 ft 0 kts 43°
2026-04-20 21:12 54.08645 -4.63224 39 ft 5 kts 57°
2026-04-20 21:12 54.08641 -4.63160 40 ft 8 kts 115°
2026-04-20 21:12 54.08608 -4.63090 40 ft 7 kts 132°
2026-04-20 21:13 54.08580 -4.63047 39 ft 5 kts 142°
2026-04-20 21:13 54.08555 -4.63025 37 ft 5 kts 174°
2026-04-20 21:13 54.08505 -4.63013 39 ft 8 kts 172°
2026-04-20 21:13 54.08452 -4.62994 38 ft 9 kts 167°
2026-04-20 21:14 54.08409 -4.63037 38 ft 7 kts 250°
2026-04-20 21:14 54.08399 -4.63104 38 ft 5 kts 255°
2026-04-20 21:14 54.08387 -4.63202 39 ft 15 kts 258°
2026-04-20 21:14 54.08366 -4.63380 41 ft 15 kts 258°
2026-04-20 21:15 54.08344 -4.63558 42 ft 15 kts 258°
2026-04-20 21:15 54.08301 -4.63719 42 ft 15 kts 241°
2026-04-20 21:15 54.08268 -4.63817 44 ft 14 kts 241°
2026-04-20 21:15 54.08205 -4.63904 47 ft 11 kts 177°
2026-04-20 21:16 54.08188 -4.63894 47 ft 1 kts 162°
2026-04-20 21:16 54.08149 -4.63827 45 ft 17 kts 94°
2026-04-20 21:16 54.08169 -4.63651 44 ft 15 kts 78°
2026-04-20 21:16 54.08218 -4.63255 40 ft 69 kts 78°
2026-04-20 21:17 54.08368 -4.62062 32 ft 134 kts 78°
2026-04-20 21:17 54.08578 -4.60342 391 ft 154 kts 79°
2026-04-20 21:17 54.08773 -4.58523 957 ft 158 kts 80°
2026-04-20 21:17 54.08967 -4.56615 1369 ft 173 kts 87°
2026-04-20 21:18 54.08776 -4.55126 1509 ft 191 kts 121°
2026-04-20 21:18 54.07722 -4.53641 1671 ft 212 kts 164°
2026-04-20 21:18 54.06199 -4.53706 1861 ft 233 kts 195°
2026-04-20 21:18 54.04577 -4.54530 2087 ft 252 kts 198°
2026-04-20 21:19 54.02883 -4.55485 2585 ft 258 kts 199°
2026-04-20 21:19 54.01174 -4.56466 3169 ft 261 kts 199°
2026-04-20 21:19 53.99445 -4.57448 3743 ft 263 kts 199°
2026-04-20 21:20 53.95828 -4.58076 4836 ft 269 kts 166°
2026-04-20 21:20 53.94125 -4.56753 5363 ft 271 kts 144°
2026-04-20 21:20 53.92805 -4.54466 5886 ft 274 kts 124°
2026-04-20 21:20 53.91728 -4.51779 6401 ft 276 kts 124°
2026-04-20 21:21 53.90641 -4.49086 6916 ft 278 kts 124°
2026-04-20 21:21 53.89541 -4.46378 7400 ft 280 kts 124°
2026-04-20 21:21 53.88432 -4.43653 7888 ft 282 kts 124°
2026-04-20 21:21 53.87314 -4.40909 8360 ft 284 kts 124°
2026-04-20 21:22 53.86191 -4.38146 8815 ft 286 kts 124°
2026-04-20 21:22 53.85073 -4.35400 9267 ft 287 kts 125°
2026-04-20 21:22 53.83933 -4.32603 9707 ft 289 kts 125°
2026-04-20 21:22 53.82786 -4.29791 10099 ft 293 kts 125°
2026-04-20 21:23 53.81599 -4.26892 10235 ft 305 kts 125°
2026-04-20 21:23 53.80370 -4.23894 10363 ft 315 kts 125°
2026-04-20 21:23 53.79103 -4.20808 10490 ft 323 kts 125°
2026-04-20 21:23 53.77807 -4.17660 10684 ft 328 kts 125°
2026-04-20 21:24 53.76505 -4.14500 11078 ft 323 kts 125°
2026-04-20 21:24 53.75266 -4.11495 12036 ft 300 kts 125°
2026-04-20 21:24 53.74121 -4.08721 13050 ft 276 kts 125°
2026-04-20 21:24 53.73070 -4.06175 14035 ft 252 kts 125°
2026-04-20 21:25 53.72109 -4.03855 15088 ft 229 kts 125°
2026-04-20 21:25 53.71214 -4.01687 15787 ft 228 kts 125°
2026-04-20 21:25 53.70267 -3.99391 15950 ft 250 kts 125°
2026-04-20 21:25 53.69229 -3.96874 16109 ft 273 kts 124°
2026-04-20 21:26 53.68239 -3.93994 16258 ft 296 kts 115°
2026-04-20 21:26 53.67415 -3.90668 16394 ft 318 kts 111°
2026-04-20 21:26 53.66567 -3.87085 16518 ft 339 kts 112°
2026-04-20 21:26 53.65660 -3.83276 16647 ft 359 kts 112°
2026-04-20 21:27 53.64708 -3.79295 16914 ft 372 kts 112°
2026-04-20 21:27 53.63740 -3.75271 17004 ft 380 kts 112°
2026-04-20 21:27 53.62737 -3.71107 17009 ft 384 kts 112°
2026-04-20 21:27 53.61687 -3.66967 17007 ft 385 kts 117°
2026-04-20 21:28 53.60266 -3.63186 17008 ft 378 kts 126°
2026-04-20 21:28 53.58746 -3.59593 17009 ft 375 kts 126°
2026-04-20 21:28 53.57238 -3.56011 17009 ft 374 kts 125°
2026-04-20 21:28 53.55731 -3.52431 17009 ft 374 kts 125°
2026-04-20 21:29 53.54227 -3.48859 17009 ft 374 kts 125°
2026-04-20 21:29 53.52722 -3.45289 17009 ft 374 kts 125°
2026-04-20 21:29 53.51214 -3.41716 17009 ft 374 kts 126°
2026-04-20 21:29 53.49709 -3.38154 17009 ft 374 kts 126°
2026-04-20 21:30 53.48200 -3.34590 17009 ft 374 kts 126°
2026-04-20 21:30 53.46688 -3.31027 17010 ft 374 kts 126°
2026-04-20 21:30 53.45175 -3.27469 17011 ft 374 kts 126°
2026-04-20 21:30 53.43661 -3.23919 17012 ft 374 kts 126°
2026-04-20 21:31 53.42146 -3.20368 17014 ft 375 kts 126°
2026-04-20 21:31 53.40830 -3.16635 17001 ft 367 kts 110°
2026-04-20 21:31 53.40402 -3.12535 16879 ft 353 kts 87°
2026-04-20 21:31 53.40924 -3.08606 16752 ft 341 kts 65°
2026-04-20 21:32 53.42055 -3.05187 16624 ft 330 kts 59°
2026-04-20 21:32 53.43197 -3.01917 16442 ft 322 kts 59°
2026-04-20 21:32 53.44310 -2.98714 15992 ft 316 kts 59°
2026-04-20 21:32 53.45413 -2.95539 15376 ft 314 kts 59°
2026-04-20 21:33 53.46513 -2.92368 14767 ft 311 kts 59°
2026-04-20 21:33 53.47600 -2.89223 14175 ft 308 kts 60°
2026-04-20 21:33 53.48665 -2.86122 13584 ft 305 kts 60°
2026-04-20 21:33 53.49719 -2.83034 12912 ft 303 kts 62°
2026-04-20 21:34 53.50362 -2.79612 11833 ft 315 kts 86°
2026-04-20 21:34 53.50099 -2.75941 10825 ft 321 kts 110°
2026-04-20 21:34 53.48935 -2.72800 10194 ft 313 kts 137°
2026-04-20 21:34 53.47241 -2.70740 9940 ft 293 kts 149°
2026-04-20 21:35 53.45439 -2.69229 9404 ft 286 kts 159°
2026-04-20 21:35 53.43592 -2.68041 8795 ft 283 kts 160°
2026-04-20 21:35 53.41752 -2.66898 8171 ft 281 kts 160°
2026-04-20 21:35 53.39930 -2.65773 7545 ft 278 kts 160°
2026-04-20 21:36 53.38121 -2.64658 6927 ft 275 kts 160°
2026-04-20 21:36 53.36325 -2.63552 6403 ft 275 kts 160°
2026-04-20 21:36 53.34534 -2.62451 6063 ft 273 kts 160°
2026-04-20 21:36 53.32762 -2.61363 6003 ft 272 kts 160°
2026-04-20 21:37 53.30984 -2.60272 5829 ft 271 kts 160°
2026-04-20 21:37 53.29237 -2.59200 5612 ft 262 kts 160°
2026-04-20 21:37 53.27565 -2.58174 5484 ft 250 kts 160°
2026-04-20 21:37 53.25962 -2.57190 5358 ft 240 kts 160°
2026-04-20 21:38 53.24513 -2.55990 5231 ft 232 kts 139°
2026-04-20 21:38 53.23626 -2.53803 5029 ft 227 kts 107°
2026-04-20 21:38 53.23521 -2.51147 4471 ft 233 kts 80°
2026-04-20 21:38 53.24270 -2.48785 3866 ft 236 kts 39°
2026-04-20 21:39 53.25672 -2.47342 3255 ft 239 kts 31°
2026-04-20 21:39 53.26832 -2.45384 2742 ft 237 kts 57°
2026-04-20 21:39 53.27770 -2.43172 2399 ft 229 kts 51°
2026-04-20 21:39 53.28756 -2.41129 2094 ft 221 kts 50°
2026-04-20 21:40 53.29701 -2.39194 1821 ft 206 kts 50°
2026-04-20 21:40 53.30559 -2.37432 1559 ft 185 kts 50°
2026-04-20 21:40 53.31331 -2.35843 1330 ft 164 kts 50°
2026-04-20 21:40 53.32019 -2.34425 1100 ft 151 kts 50°
2026-04-20 21:41 53.32666 -2.33091 908 ft 145 kts 50°
2026-04-20 21:41 53.33298 -2.31787 717 ft 143 kts 50°
2026-04-20 21:41 53.33922 -2.30496 543 ft 142 kts 51°
2026-04-20 21:41 53.34572 -2.29152 357 ft 142 kts 50°
2026-04-20 21:42 53.35161 -2.27939 248 ft 131 kts 50°
2026-04-20 21:42 53.35646 -2.26934 261 ft 87 kts 51°
2026-04-20 21:42 53.35979 -2.26246 262 ft 50 kts 51°
2026-04-20 21:42 53.36067 -2.26157 257 ft 13 kts 330°
2026-04-20 21:43 53.36119 -2.26225 255 ft 13 kts 321°
2026-04-20 21:43 53.36115 -2.26374 255 ft 9 kts 232°
2026-04-20 21:43 53.36092 -2.26422 256 ft 0 kts 231°
2026-04-20 21:44 53.36071 -2.26465 256 ft 6 kts 230°
2026-04-20 21:44 53.36047 -2.26520 256 ft 7 kts 244°
2026-04-20 21:44 53.36067 -2.26633 255 ft 9 kts 269°
2026-04-20 21:44 53.36040 -2.26722 255 ft 9 kts 233°
2026-04-20 21:45 53.36003 -2.26798 255 ft 8 kts 229°
2026-04-20 21:45 53.35967 -2.26843 255 ft 0 kts 191°
2026-04-20 21:46 53.35929 -2.26830 256 ft 9 kts 167°
2026-04-20 21:46 53.35895 -2.26849 256 ft 7 kts 212°
2026-04-20 21:46 53.35865 -2.26911 256 ft 7 kts 233°
2026-04-20 21:47 53.35809 -2.27058 255 ft 20 kts 239°
2026-04-20 21:47 53.35727 -2.27235 255 ft 18 kts 231°
2026-04-20 21:47 53.35653 -2.27387 250 ft 16 kts 231°
2026-04-20 21:47 53.35633 -2.27537 246 ft 14 kts 310°
2026-04-20 21:48 53.35712 -2.27628 248 ft 14 kts 338°
2026-04-20 21:48 53.35794 -2.27698 251 ft 14 kts 317°
2026-04-20 21:48 53.35806 -2.27719 252 ft 0 kts 314°
2026-04-20 21:48 53.35831 -2.27732 253 ft 9 kts 353°
2026-04-20 21:49 53.35938 -2.27726 255 ft 21 kts 355°
2026-04-20 21:49 53.36056 -2.27841 255 ft 20 kts 321°
2026-04-20 21:49 53.36179 -2.28006 255 ft 24 kts 316°
2026-04-20 21:49 53.36302 -2.28213 255 ft 26 kts 314°
2026-04-20 21:50 53.36399 -2.28402 255 ft 15 kts 293°
2026-04-20 21:50 53.36458 -2.28551 255 ft 16 kts 314°
2026-04-20 21:50 53.36541 -2.28692 255 ft 18 kts 314°
2026-04-20 21:50 53.36610 -2.28854 255 ft 11 kts 310°
2026-04-20 21:51 53.36637 -2.28933 255 ft 18 kts 296°
2026-04-20 21:51 53.36717 -2.29078 255 ft 17 kts 313°
2026-04-20 21:51 53.36819 -2.29081 255 ft 17 kts 21°
2026-04-20 21:51 53.36912 -2.28957 255 ft 18 kts 44°
2026-04-20 21:52 53.36965 -2.28869 255 ft 5 kts 44°
2026-04-20 21:52 53.36994 -2.28803 255 ft 9 kts 79°
2026-04-20 21:52 53.36959 -2.28716 255 ft 4 kts 121°
2026-04-20 21:52 53.36950 -2.28700 255 ft 1 kts 134°
2026-04-20 21:53 53.36948 -2.28697 255 ft 0 kts 134°